Terug naar catalogus

STARLINK-30832

ActiefCommunicatieVLEO
NORAD 58354·PAYLOAD·🇺🇸 United States

Gelanceerd Nov 18, 2023 vanaf Cape Canaveral Space Force Station

Loading…

Volgende Passages (komende 24 uur)

TLE

VersSource: CelesTrak SupGP

Epoch: Sep 14, 2026, 21:05 UTC

1 58354C 23177D   26257.87895833 -.00045084  00000+0 -16326-2 0  2577
2 58354  43.0035   2.6767 0001543 267.2392 156.5360 15.27606641    19

Volg STARLINK-30832 in realtime met AllMySat

Download on the App Store